User: anonymous   Login
Location: Cerda�ola
(41.4919°N, 2.1403°E)
Time: 00:32:55
(UTC+00:00)
Language:

Lacrosse 4 Rocket - Orbit

View from above orbital plane
View from above orbital plane
View from above satellite
View from above satellite

Ground track
Ground track

The orbit data is extracted from the following two-line orbital elements,

1 26474U 00047B   20188.50758999 +.00000032 +00000-0 +13730-4 0  9998
2 26474 067.9943 023.2433 0055948 181.6117 178.4855 14.95964333082090
Epoch (UTC): 06 July 2020 12:10:55
Eccentricity: 0.0055948
inclination: 67.9943°
perigee height: 540 km
apogee height: 618 km
right ascension of ascending node: 23.2433°
argument of perigee: 181.6117°
revolutions per day: 14.95964333
mean anomaly at epoch: 178.4855°
orbit number at epoch: 8209

The dashed part of the orbit path shows where the satellite is in the earth's shadow,  

DLR